TimeCST,TemperatureF,Dew PointF,Humidity,Sea Level PressureIn,VisibilityMPH,Wind Direction,Wind SpeedMPH,Gust SpeedMPH,PrecipitationIn,Events,Conditions,WindDirDegrees,DateUTC
12:53 AM,63.0,62.1,97,29.77,6.0,South,4.6,-,N/A,,Mostly Cloudy,190,2013-12-03 06:53:00
1:43 AM,62.6,60.8,94,29.77,4.0,Calm,Calm,-,N/A,,Mostly Cloudy,0,2013-12-03 07:43:00
1:53 AM,62.1,61.0,96,29.77,4.0,Calm,Calm,-,N/A,,Mostly Cloudy,0,2013-12-03 07:53:00
2:27 AM,60.8,60.8,100,29.76,3.0,South,3.5,-,N/A,,Scattered Clouds,170,2013-12-03 08:27:00
2:48 AM,62.6,60.8,94,29.76,3.0,South,3.5,-,N/A,,Mostly Cloudy,180,2013-12-03 08:48:00
2:53 AM,62.1,61.0,96,29.76,3.0,South,4.6,-,N/A,,Mostly Cloudy,170,2013-12-03 08:53:00
2:55 AM,62.6,60.8,94,29.76,2.5,South,4.6,-,N/A,,Mostly Cloudy,180,2013-12-03 08:55:00
3:01 AM,62.6,62.6,100,29.76,0.8,South,5.8,-,N/A,,Mostly Cloudy,190,2013-12-03 09:01:00
3:53 AM,63.0,63.0,100,29.74,0.5,South,6.9,-,N/A,Fog,Fog,190,2013-12-03 09:53:00
4:40 AM,62.6,62.6,100,29.73,1.5,SSW,5.8,-,N/A,,Overcast,200,2013-12-03 10:40:00
4:53 AM,63.0,62.1,97,29.73,2.0,South,6.9,-,N/A,,Overcast,190,2013-12-03 10:53:00
5:36 AM,62.6,62.6,100,29.73,5.0,South,4.6,-,N/A,,Overcast,190,2013-12-03 11:36:00
5:53 AM,63.0,62.1,97,29.73,3.0,South,3.5,-,N/A,,Overcast,180,2013-12-03 11:53:00
6:01 AM,62.6,62.6,100,29.73,2.0,South,4.6,-,N/A,,Overcast,180,2013-12-03 12:01:00
6:15 AM,62.6,62.6,100,29.74,1.5,South,4.6,-,N/A,,Overcast,190,2013-12-03 12:15:00
6:23 AM,62.6,62.6,100,29.74,2.5,South,4.6,-,N/A,,Overcast,190,2013-12-03 12:23:00
6:40 AM,62.6,62.6,100,29.74,3.0,SSW,5.8,-,N/A,,Mostly Cloudy,200,2013-12-03 12:40:00
6:53 AM,62.1,61.0,96,29.75,5.0,SSW,5.8,-,N/A,,Scattered Clouds,210,2013-12-03 12:53:00
7:53 AM,64.0,64.0,100,29.77,5.0,South,4.6,-,N/A,,Partly Cloudy,170,2013-12-03 13:53:00
8:53 AM,70.0,66.9,90,29.77,10.0,SW,11.5,-,N/A,,Clear,220,2013-12-03 14:53:00
9:40 AM,73.4,66.2,78,29.78,10.0,SW,10.4,-,N/A,,Mostly Cloudy,230,2013-12-03 15:40:00
9:53 AM,73.0,66.9,81,29.79,10.0,SW,12.7,19.6,N/A,,Mostly Cloudy,230,2013-12-03 15:53:00
10:53 AM,75.9,64.9,69,29.78,10.0,SW,16.1,21.9,N/A,,Mostly Cloudy,230,2013-12-03 16:53:00
11:34 AM,78.8,64.4,61,29.77,10.0,SW,15.0,24.2,N/A,,Mostly Cloudy,220,2013-12-03 17:34:00
11:42 AM,78.8,66.2,65,29.76,10.0,SW,15.0,21.9,N/A,,Mostly Cloudy,230,2013-12-03 17:42:00
11:53 AM,79.0,66.0,64,29.76,10.0,SSW,17.3,25.3,N/A,,Mostly Cloudy,210,2013-12-03 17:53:00
12:04 PM,78.8,64.4,61,29.75,10.0,SW,19.6,25.3,N/A,,Scattered Clouds,230,2013-12-03 18:04:00
12:53 PM,79.0,64.9,62,29.73,10.0,SW,15.0,25.3,N/A,,Clear,230,2013-12-03 18:53:00
1:53 PM,78.1,64.9,64,29.72,10.0,SW,15.0,25.3,N/A,,Scattered Clouds,230,2013-12-03 19:53:00
2:53 PM,77.0,64.9,66,29.72,10.0,SW,13.8,21.9,N/A,,Partly Cloudy,230,2013-12-03 20:53:00
3:53 PM,75.9,64.9,69,29.71,10.0,SSW,17.3,21.9,N/A,,Scattered Clouds,210,2013-12-03 21:53:00
4:53 PM,73.9,66.0,76,29.72,10.0,SSW,10.4,-,N/A,,Clear,200,2013-12-03 22:53:00
5:43 PM,71.6,66.2,83,29.73,10.0,South,9.2,-,N/A,,Mostly Cloudy,190,2013-12-03 23:43:00
5:53 PM,72.0,66.9,84,29.73,10.0,South,6.9,-,N/A,,Mostly Cloudy,180,2013-12-03 23:53:00
6:02 PM,71.6,66.2,83,29.73,10.0,South,6.9,-,N/A,,Mostly Cloudy,180,2013-12-04 00:02:00
6:53 PM,69.1,68.0,96,29.75,8.0,South,9.2,-,N/A,,Overcast,180,2013-12-04 00:53:00
7:53 PM,70.0,68.0,93,29.76,7.0,South,9.2,18.4,N/A,,Overcast,180,2013-12-04 01:53:00
8:53 PM,70.0,69.1,97,29.78,5.0,South,13.8,-,N/A,,Overcast,190,2013-12-04 02:53:00
9:53 PM,70.0,68.0,93,29.79,6.0,South,10.4,-,N/A,,Overcast,190,2013-12-04 03:53:00
10:41 PM,69.8,69.8,100,29.79,2.0,SSW,9.2,-,N/A,,Overcast,200,2013-12-04 04:41:00
10:53 PM,69.1,69.1,100,29.79,2.0,SSW,8.1,-,N/A,,Overcast,200,2013-12-04 04:53:00
11:15 PM,69.8,69.8,100,29.79,3.0,South,10.4,-,N/A,,Overcast,180,2013-12-04 05:15:00
11:23 PM,69.8,69.8,100,29.80,2.5,South,8.1,-,N/A,,Overcast,190,2013-12-04 05:23:00
11:30 PM,69.8,69.8,100,29.80,3.0,South,9.2,-,N/A,,Overcast,180,2013-12-04 05:30:00
11:53 PM,69.1,68.0,96,29.80,2.5,South,9.2,17.3,N/A,,Overcast,190,2013-12-04 05:53:00